Location: Chandrammap?lem
(16.9200°N, 81.0051°E)
Time: 02:12:15
(UTC+00:00)

USA 290 - Pass Details

Date: 29 May 2024
Orbit: 403 x 414 km, 73.6° (Epoch: 12 May)

Event Time Altitude Azimuth Distance (km) Brightness Sun altitude
Rises 14:23:11 0° 335° (NNW) 2,313 6.9 -17.5°
Reaches altitude 10° 14:25:18 10° 327° (NNW) 1,453 5.9 -18.0°
Maximum altitude 14:28:16 37° 258° (WSW) 638 3.5 -18.6°
Enters shadow 14:29:54 21° 202° (SSW) 954 3.9 -18.9°
